POLAR

Last updated on Jan. 24, 2021, 6:19 a.m. UTC

1 23802U 96013A   21023.18799829  .00000296  00000-0  00000-0 0  9992
2 23802  78.7065 247.1010 6123474 276.0281  21.8626  1.29846395119269
UTC
Height (km)
Latitude
Longitude
Inclination
Orbital Period
UTC large
Height (km)
Speed (km/s)
/
Latitude / Longitude
Inclination (degrees)
Orbital Period (minutes)
Azimuth
Elevation
Range (km)
Doppler Factor
iOS Compass Heading
iOS Angle

Next 30 passes for location: Hong Kong

Rise time Rise Azimuth (degrees) Set time Set Azimuth (degrees) Duration Max altitude (degrees)

No matching passes for this satellites